Time,TemperatureF,DewpointF,PressureIn,WindDirection,WindDirectionDegrees,WindSpeedMPH,WindSpeedGustMPH,Humidity,HourlyPrecipIn,Conditions,Clouds,dailyrainin,SoftwareType,DateUTC
2013-03-11 00:04:00,31.5,31.0,30.12,SSW,202,0.0,0.0,98,0.00,CLR,,0.00,WeatherDisplay:10.37,2013-03-11 08:04:00,
2013-03-11 00:09:00,31.3,30.8,30.12,SSW,202,0.0,0.0,98,0.00,CLR,,0.00,WeatherDisplay:10.37,2013-03-11 08:09:00,
2013-03-11 00:14:00,31.3,30.8,30.12,SSW,202,0.0,0.0,98,0.00,CLR,,0.00,WeatherDisplay:10.37,2013-03-11 08:14:00,
2013-03-11 00:19:00,31.3,30.8,30.12,SSW,202,0.0,0.0,98,0.00,CLR,,0.00,WeatherDisplay:10.37,2013-03-11 08:19:00,
2013-03-11 00:24:00,31.3,30.8,30.12,SSW,202,0.0,0.0,98,0.00,CLR,,0.00,WeatherDisplay:10.37,2013-03-11 08:24:00,
2013-03-11 00:29:00,31.3,30.8,30.12,SSW,202,0.0,0.0,98,0.00,CLR,,0.00,WeatherDisplay:10.37,2013-03-11 08:29:00,
2013-03-11 00:34:00,31.3,30.8,30.12,SSW,202,0.0,0.0,98,0.00,CLR,,0.00,WeatherDisplay:10.37,2013-03-11 08:34:00,
2013-03-11 00:39:00,31.1,30.6,30.12,SSW,202,0.0,0.0,98,0.00,CLR,,0.00,WeatherDisplay:10.37,2013-03-11 08:39:00,
2013-03-11 00:44:00,31.1,30.6,30.12,SSW,202,0.0,0.0,98,0.00,CLR,,0.00,WeatherDisplay:10.37,2013-03-11 08:44:00,
2013-03-11 00:49:00,31.1,30.6,30.12,SSW,202,0.0,0.0,98,0.00,CLR,,0.00,WeatherDisplay:10.37,2013-03-11 08:49:00,
2013-03-11 00:54:00,31.1,30.6,30.12,SSW,202,0.0,0.0,98,0.00,CLR,,0.00,WeatherDisplay:10.37,2013-03-11 08:54:00,
2013-03-11 00:59:00,30.9,30.4,30.12,SSW,202,0.0,0.0,98,0.00,CLR,,0.00,WeatherDisplay:10.37,2013-03-11 08:59:00,
2013-03-11 01:04:00,30.9,30.4,30.15,SSW,202,0.0,0.0,98,0.00,CLR,,0.00,WeatherDisplay:10.37,2013-03-11 09:04:00,
2013-03-11 01:09:00,30.7,30.2,30.15,SSW,202,0.0,0.0,98,0.00,CLR,,0.00,WeatherDisplay:10.37,2013-03-11 09:09:00,
2013-03-11 01:14:00,30.7,30.2,30.15,SSW,202,0.0,0.0,98,0.00,CLR,,0.00,WeatherDisplay:10.37,2013-03-11 09:14:00,
2013-03-11 01:19:00,30.7,30.2,30.15,SSW,202,0.0,0.0,98,0.00,CLR,,0.00,WeatherDisplay:10.37,2013-03-11 09:19:00,
2013-03-11 01:24:00,30.6,30.1,30.15,SSW,202,0.0,0.0,98,0.00,CLR,,0.00,WeatherDisplay:10.37,2013-03-11 09:24:00,
2013-03-11 01:29:00,30.4,29.9,30.15,SSW,202,0.0,0.0,98,0.00,CLR,,0.00,WeatherDisplay:10.37,2013-03-11 09:29:00,
2013-03-11 01:34:00,30.2,29.7,30.15,SSW,202,0.0,0.0,98,0.00,CLR,,0.00,WeatherDisplay:10.37,2013-03-11 09:34:00,
2013-03-11 01:39:00,30.0,29.5,30.15,SSW,202,0.0,0.0,98,0.00,CLR,,0.00,WeatherDisplay:10.37,2013-03-11 09:39:00,
2013-03-11 01:44:00,29.7,29.2,30.15,SSW,202,0.0,0.0,98,0.00,CLR,,0.00,WeatherDisplay:10.37,2013-03-11 09:44:00,
2013-03-11 01:49:00,29.5,29.0,30.15,SSW,202,0.0,0.0,98,0.00,CLR,,0.00,WeatherDisplay:10.37,2013-03-11 09:49:00,
2013-03-11 01:54:00,29.1,28.6,30.15,SSW,202,0.0,0.0,98,0.00,CLR,,0.00,WeatherDisplay:10.37,2013-03-11 09:54:00,
2013-03-11 01:59:00,28.9,28.4,30.15,SSW,202,0.0,0.0,98,0.00,CLR,,0.00,WeatherDisplay:10.37,2013-03-11 09:59:00,
2013-03-11 02:04:00,28.9,28.4,30.15,SSW,202,0.0,0.0,98,0.00,CLR,,0.00,WeatherDisplay:10.37,2013-03-11 10:04:00,
2013-03-11 02:09:00,28.6,28.1,30.15,SSW,202,0.0,0.0,98,0.00,CLR,,0.00,WeatherDisplay:10.37,2013-03-11 10:09:00,
2013-03-11 02:14:00,28.4,27.9,30.15,SSW,202,0.0,0.0,98,0.00,CLR,,0.00,WeatherDisplay:10.37,2013-03-11 10:14:00,
2013-03-11 02:19:00,28.2,27.7,30.15,SSW,202,0.0,0.0,98,0.00,CLR,,0.00,WeatherDisplay:10.37,2013-03-11 10:19:00,
2013-03-11 02:24:00,28.0,27.5,30.15,SSW,202,0.0,0.0,98,0.00,CLR,,0.00,WeatherDisplay:10.37,2013-03-11 10:24:00,
2013-03-11 02:29:00,27.9,27.4,30.15,SSW,202,0.0,0.0,98,0.00,CLR,,0.00,WeatherDisplay:10.37,2013-03-11 10:29:00,
2013-03-11 02:34:00,27.7,27.2,30.15,SSW,202,0.0,0.0,98,0.00,CLR,,0.00,WeatherDisplay:10.37,2013-03-11 10:34:00,
2013-03-11 02:39:00,27.7,27.2,30.15,SSW,202,0.0,0.0,98,0.00,CLR,,0.00,WeatherDisplay:10.37,2013-03-11 10:39:00,
2013-03-11 02:44:00,27.0,26.5,30.15,SSW,202,0.0,0.0,98,0.00,CLR,,0.00,WeatherDisplay:10.37,2013-03-11 10:44:00,
2013-03-11 02:49:00,26.8,26.3,30.15,SSW,202,0.0,0.0,98,0.00,CLR,,0.00,WeatherDisplay:10.37,2013-03-11 10:49:00,
2013-03-11 02:54:00,26.6,26.1,30.15,SSW,202,0.0,0.0,98,0.00,CLR,,0.00,WeatherDisplay:10.37,2013-03-11 10:54:00,
2013-03-11 03:00:00,27.0,26.5,30.15,SSW,202,0.0,0.0,98,0.00,CLR,,0.00,WeatherDisplay:10.37,2013-03-11 11:00:00,
2013-03-11 03:05:00,26.8,26.3,30.15,SSW,202,0.0,0.0,98,0.00,CLR,,0.00,WeatherDisplay:10.37,2013-03-11 11:05:00,
2013-03-11 03:10:00,26.4,25.9,30.15,SSW,202,0.0,0.0,98,0.00,CLR,,0.00,WeatherDisplay:10.37,2013-03-11 11:10:00,
2013-03-11 03:15:00,26.1,25.6,30.15,SSW,202,0.0,0.0,98,0.00,CLR,,0.00,WeatherDisplay:10.37,2013-03-11 11:15:00,
2013-03-11 03:20:00,25.9,25.4,30.15,SSW,202,0.0,0.0,98,0.00,CLR,,0.00,WeatherDisplay:10.37,2013-03-11 11:20:00,
2013-03-11 03:25:00,25.7,25.2,30.15,SSW,202,0.0,0.0,98,0.00,CLR,,0.00,WeatherDisplay:10.37,2013-03-11 11:25:00,
2013-03-11 03:30:00,25.5,25.0,30.15,SSW,202,0.0,0.0,98,0.00,CLR,,0.00,WeatherDisplay:10.37,2013-03-11 11:30:00,
2013-03-11 03:35:00,25.2,24.7,30.15,SSW,202,0.0,0.0,98,0.00,CLR,,0.00,WeatherDisplay:10.37,2013-03-11 11:35:00,
2013-03-11 03:40:00,24.8,24.3,30.15,SSW,202,0.0,0.0,98,0.00,CLR,,0.00,WeatherDisplay:10.37,2013-03-11 11:40:00,
2013-03-11 03:45:00,24.8,24.3,30.15,SSW,202,0.0,0.0,98,0.00,CLR,,0.00,WeatherDisplay:10.37,2013-03-11 11:45:00,
2013-03-11 03:50:00,24.6,24.1,30.15,SSW,202,0.0,0.0,98,0.00,CLR,,0.00,WeatherDisplay:10.37,2013-03-11 11:50:00,
2013-03-11 03:55:00,24.4,24.0,30.15,SSW,202,0.0,0.0,98,0.00,CLR,,0.00,WeatherDisplay:10.37,2013-03-11 11:55:00,
2013-03-11 04:00:00,24.3,23.8,30.15,SSW,202,0.0,0.0,98,0.00,CLR,,0.00,WeatherDisplay:10.37,2013-03-11 12:00:00,
2013-03-11 04:05:00,24.4,24.0,30.15,SSW,202,0.0,0.0,98,0.00,CLR,,0.00,WeatherDisplay:10.37,2013-03-11 12:05:00,
2013-03-11 04:10:00,24.4,24.0,30.15,SSW,202,0.0,0.0,98,0.00,CLR,,0.00,WeatherDisplay:10.37,2013-03-11 12:10:00,
2013-03-11 04:15:00,24.4,24.0,30.15,SSW,202,0.0,0.0,98,0.00,CLR,,0.00,WeatherDisplay:10.37,2013-03-11 12:15:00,
2013-03-11 04:20:00,24.4,24.0,30.18,SSW,202,0.0,0.0,98,0.00,CLR,,0.00,WeatherDisplay:10.37,2013-03-11 12:20:00,
2013-03-11 04:25:00,24.4,24.0,30.18,SSW,202,0.0,0.0,98,0.00,CLR,,0.00,WeatherDisplay:10.37,2013-03-11 12:25:00,
2013-03-11 04:31:00,24.4,24.0,30.18,SSW,202,0.0,0.0,98,0.00,CLR,,0.00,WeatherDisplay:10.37,2013-03-11 12:31:00,
2013-03-11 04:36:00,24.1,23.6,30.15,SSW,202,0.0,0.0,98,0.00,CLR,,0.00,WeatherDisplay:10.37,2013-03-11 12:36:00,
2013-03-11 04:41:00,23.9,23.4,30.15,SSW,202,0.0,0.0,98,0.00,CLR,,0.00,WeatherDisplay:10.37,2013-03-11 12:41:00,
2013-03-11 04:46:00,23.7,23.2,30.15,SSW,202,0.0,0.0,98,0.00,CLR,,0.00,WeatherDisplay:10.37,2013-03-11 12:46:00,
2013-03-11 04:51:00,23.5,23.1,30.15,SSW,202,0.0,0.0,98,0.00,CLR,,0.00,WeatherDisplay:10.37,2013-03-11 12:51:00,
2013-03-11 04:56:00,23.5,23.1,30.15,SSW,202,0.0,0.0,98,0.00,CLR,,0.00,WeatherDisplay:10.37,2013-03-11 12:56:00,
2013-03-11 05:01:00,23.7,23.2,30.15,SSW,202,0.0,0.0,98,0.00,CLR,,0.00,WeatherDisplay:10.37,2013-03-11 13:01:00,
2013-03-11 05:06:00,25.0,24.5,30.15,SSW,202,0.0,0.0,98,0.00,CLR,,0.00,WeatherDisplay:10.37,2013-03-11 13:06:00,
2013-03-11 05:11:00,25.7,25.2,30.15,SSW,202,0.0,0.0,98,0.00,CLR,,0.00,WeatherDisplay:10.37,2013-03-11 13:11:00,
2013-03-11 05:16:00,26.1,25.6,30.15,SSW,202,0.0,0.0,98,0.00,CLR,,0.00,WeatherDisplay:10.37,2013-03-11 13:16:00,
2013-03-11 05:21:00,26.1,25.6,30.15,SSW,202,0.0,0.0,98,0.00,CLR,,0.00,WeatherDisplay:10.37,2013-03-11 13:21:00,
2013-03-11 05:26:00,26.2,25.8,30.15,SSW,202,0.0,0.0,98,0.00,CLR,,0.00,WeatherDisplay:10.37,2013-03-11 13:26:00,
2013-03-11 05:32:00,26.4,25.9,30.15,SSW,202,0.0,0.0,98,0.00,CLR,,0.00,WeatherDisplay:10.37,2013-03-11 13:32:00,
2013-03-11 05:37:00,26.2,25.8,30.15,SSW,202,0.0,0.0,98,0.00,CLR,,0.00,WeatherDisplay:10.37,2013-03-11 13:37:00,
2013-03-11 05:43:00,26.2,25.8,30.15,SSW,202,0.0,0.0,98,0.00,CLR,,0.00,WeatherDisplay:10.37,2013-03-11 13:43:00,
2013-03-11 05:48:00,26.2,25.8,30.15,SSW,202,0.0,0.0,98,0.00,CLR,,0.00,WeatherDisplay:10.37,2013-03-11 13:48:00,
2013-03-11 05:53:00,26.4,25.9,30.15,SSW,202,0.0,0.0,98,0.00,CLR,,0.00,WeatherDisplay:10.37,2013-03-11 13:53:00,
2013-03-11 05:58:00,26.6,26.1,30.15,SSW,202,0.0,0.0,98,0.00,CLR,,0.00,WeatherDisplay:10.37,2013-03-11 13:58:00,
2013-03-11 06:03:00,26.4,25.9,30.15,SSW,202,0.0,0.0,98,0.00,CLR,,0.00,WeatherDisplay:10.37,2013-03-11 14:03:00,
2013-03-11 06:08:00,26.2,25.8,30.15,SSW,202,0.0,0.0,98,0.00,CLR,,0.00,WeatherDisplay:10.37,2013-03-11 14:08:00,
2013-03-11 06:13:00,26.2,25.8,30.15,SSW,202,0.0,0.0,98,0.00,CLR,,0.00,WeatherDisplay:10.37,2013-03-11 14:13:00,
2013-03-11 06:18:00,26.4,25.9,30.15,SSW,202,0.0,0.0,98,0.00,CLR,,0.00,WeatherDisplay:10.37,2013-03-11 14:18:00,
2013-03-11 06:23:00,26.2,25.8,30.18,SSW,202,0.0,0.0,98,0.00,CLR,,0.00,WeatherDisplay:10.37,2013-03-11 14:23:00,
2013-03-11 06:28:00,26.2,25.5,30.18,SSW,202,0.0,0.0,97,0.00,CLR,,0.00,WeatherDisplay:10.37,2013-03-11 14:28:00,
2013-03-11 06:33:00,26.1,25.3,30.18,SSW,202,0.0,0.0,97,0.00,CLR,,0.00,WeatherDisplay:10.37,2013-03-11 14:33:00,
2013-03-11 06:38:00,26.1,25.1,30.18,SSW,202,0.0,0.0,96,0.00,CLR,,0.00,WeatherDisplay:10.37,2013-03-11 14:38:00,
2013-03-11 06:44:00,26.1,25.1,30.18,SSW,202,0.0,0.0,96,0.00,CLR,,0.00,WeatherDisplay:10.37,2013-03-11 14:44:00,
2013-03-11 06:49:00,25.9,24.6,30.18,SSW,202,0.0,0.0,95,0.00,CLR,,0.00,WeatherDisplay:10.37,2013-03-11 14:49:00,
2013-03-11 06:54:00,25.7,24.5,30.18,SSW,202,0.0,0.0,95,0.00,CLR,,0.00,WeatherDisplay:10.37,2013-03-11 14:54:00,
2013-03-11 06:59:00,25.5,24.3,30.18,SSW,202,0.0,0.0,95,0.00,CLR,,0.00,WeatherDisplay:10.37,2013-03-11 14:59:00,
2013-03-11 07:04:00,25.3,24.1,30.18,SSW,202,0.0,0.0,95,0.00,CLR,,0.00,WeatherDisplay:10.37,2013-03-11 15:04:00,
2013-03-11 07:09:00,25.2,23.9,30.18,SSW,202,0.0,0.0,95,0.00,CLR,,0.00,WeatherDisplay:10.37,2013-03-11 15:09:00,
2013-03-11 07:14:00,25.3,23.9,30.18,SSW,202,0.0,0.0,94,0.00,CLR,,0.00,WeatherDisplay:10.37,2013-03-11 15:14:00,
2013-03-11 07:19:00,25.2,23.4,30.18,SSW,202,0.0,0.0,93,0.00,CLR,,0.00,WeatherDisplay:10.37,2013-03-11 15:19:00,
2013-03-11 07:24:00,25.2,23.4,30.18,SSW,202,0.0,0.0,93,0.00,CLR,,0.00,WeatherDisplay:10.37,2013-03-11 15:24:00,
2013-03-11 07:29:00,24.8,23.1,30.18,SSW,202,0.0,0.0,93,0.00,CLR,,0.00,WeatherDisplay:10.37,2013-03-11 15:29:00,
2013-03-11 07:34:00,24.6,23.1,30.18,SSW,202,0.0,0.0,94,0.00,CLR,,0.00,WeatherDisplay:10.37,2013-03-11 15:34:00,
2013-03-11 07:39:00,24.6,23.1,30.18,SSW,202,0.0,0.0,94,0.00,CLR,,0.00,WeatherDisplay:10.37,2013-03-11 15:39:00,
2013-03-11 07:44:00,24.3,22.8,30.18,SSW,202,0.0,0.0,94,0.00,CLR,,0.00,WeatherDisplay:10.37,2013-03-11 15:44:00,
2013-03-11 07:49:00,23.9,22.4,30.18,SSW,202,0.0,0.0,94,0.00,CLR,,0.00,WeatherDisplay:10.37,2013-03-11 15:49:00,
2013-03-11 07:54:00,23.2,21.5,30.18,SSW,202,0.0,0.0,93,0.00,CLR,,0.00,WeatherDisplay:10.37,2013-03-11 15:54:00,
2013-03-11 08:00:00,23.0,21.3,30.18,SSW,202,0.0,0.0,93,0.00,CLR,,0.00,WeatherDisplay:10.37,2013-03-11 16:00:00,
2013-03-11 08:05:00,22.8,21.4,30.18,SSW,202,0.0,0.0,94,0.00,CLR,,0.00,WeatherDisplay:10.37,2013-03-11 16:05:00,
2013-03-11 08:10:00,23.0,21.8,30.18,SSW,202,0.0,0.0,95,0.00,CLR,,0.00,WeatherDisplay:10.37,2013-03-11 16:10:00,
2013-03-11 08:15:00,22.8,21.6,30.18,SSW,202,0.0,0.0,95,0.00,CLR,,0.00,WeatherDisplay:10.37,2013-03-11 16:15:00,
2013-03-11 08:20:00,22.5,21.2,30.18,SSW,202,0.0,0.0,95,0.00,CLR,,0.00,WeatherDisplay:10.37,2013-03-11 16:20:00,
2013-03-11 08:25:00,22.1,20.6,30.18,SSW,202,0.0,0.0,94,0.00,CLR,,0.00,WeatherDisplay:10.37,2013-03-11 16:25:00,
2013-03-11 08:30:00,22.5,21.2,30.18,SSW,202,0.0,0.0,95,0.00,CLR,,0.00,WeatherDisplay:10.37,2013-03-11 16:30:00,
2013-03-11 08:35:00,22.6,21.4,30.18,SSW,202,0.0,0.0,95,0.00,CLR,,0.00,WeatherDisplay:10.37,2013-03-11 16:35:00,
2013-03-11 08:40:00,22.5,21.5,30.18,SSW,202,0.0,0.0,96,0.00,CLR,,0.00,WeatherDisplay:10.37,2013-03-11 16:40:00,
2013-03-11 08:45:00,22.6,21.7,30.18,SSW,202,0.0,0.0,96,0.00,CLR,,0.00,WeatherDisplay:10.37,2013-03-11 16:45:00,
2013-03-11 08:50:00,22.8,21.9,30.18,SSW,202,0.0,0.0,96,0.00,CLR,,0.00,WeatherDisplay:10.37,2013-03-11 16:50:00,
2013-03-11 08:55:00,22.8,22.1,30.18,SSW,202,0.0,0.0,97,0.00,CLR,,0.00,WeatherDisplay:10.37,2013-03-11 16:55:00,
2013-03-11 09:00:00,22.8,22.1,30.18,SSW,202,0.0,0.0,97,0.00,CLR,,0.00,WeatherDisplay:10.37,2013-03-11 17:00:00,
2013-03-11 09:05:00,22.8,22.1,30.18,SSW,202,0.0,0.0,97,0.00,CLR,,0.00,WeatherDisplay:10.37,2013-03-11 17:05:00,
2013-03-11 09:10:00,23.0,22.3,30.18,SSW,202,0.0,0.0,97,0.00,CLR,,0.00,WeatherDisplay:10.37,2013-03-11 17:10:00,
2013-03-11 09:15:00,23.4,22.6,30.18,SSW,202,0.0,0.0,97,0.00,CLR,,0.00,WeatherDisplay:10.37,2013-03-11 17:15:00,
2013-03-11 09:20:00,23.5,22.8,30.18,SSW,202,0.0,0.0,97,0.00,CLR,,0.00,WeatherDisplay:10.37,2013-03-11 17:20:00,
2013-03-11 09:25:00,23.5,22.8,30.18,SSW,202,0.0,0.0,97,0.00,CLR,,0.00,WeatherDisplay:10.37,2013-03-11 17:25:00,
2013-03-11 09:30:00,23.9,23.2,30.18,SSW,202,0.0,0.0,97,0.00,CLR,,0.00,WeatherDisplay:10.37,2013-03-11 17:30:00,
2013-03-11 09:35:00,24.1,23.6,30.18,SSW,202,0.0,0.0,98,0.00,CLR,,0.00,WeatherDisplay:10.37,2013-03-11 17:35:00,
2013-03-11 09:40:00,24.3,23.8,30.18,SSW,202,0.0,0.0,98,0.00,CLR,,0.00,WeatherDisplay:10.37,2013-03-11 17:40:00,
2013-03-11 09:45:00,24.6,24.1,30.18,SSW,202,0.0,0.0,98,0.00,CLR,,0.00,WeatherDisplay:10.37,2013-03-11 17:45:00,
2013-03-11 09:50:00,25.2,24.7,30.21,SSW,202,0.0,0.0,98,0.00,CLR,,0.00,WeatherDisplay:10.37,2013-03-11 17:50:00,
2013-03-11 09:55:00,25.3,24.6,30.21,SSW,202,0.0,0.0,97,0.00,CLR,,0.00,WeatherDisplay:10.37,2013-03-11 17:55:00,
2013-03-11 10:00:00,25.7,24.7,30.21,SSW,202,0.0,0.0,96,0.00,CLR,,0.00,WeatherDisplay:10.37,2013-03-11 18:00:00,
2013-03-11 10:05:00,25.9,24.4,30.18,SSW,202,0.0,0.0,94,0.00,CLR,,0.00,WeatherDisplay:10.37,2013-03-11 18:05:00,
2013-03-11 10:10:00,25.9,23.6,30.18,SSW,202,0.0,0.0,91,0.00,CLR,,0.00,WeatherDisplay:10.37,2013-03-11 18:10:00,
2013-03-11 10:15:00,25.7,22.4,30.18,SSW,202,2.3,2.3,87,0.00,CLR,,0.00,WeatherDisplay:10.37,2013-03-11 18:15:00,
2013-03-11 10:20:00,25.9,22.5,30.18,SSW,202,1.1,0.0,87,0.00,CLR,,0.00,WeatherDisplay:10.37,2013-03-11 18:20:00,
2013-03-11 10:25:00,26.1,22.4,30.18,SSW,202,1.1,1.1,86,0.00,CLR,,0.00,WeatherDisplay:10.37,2013-03-11 18:25:00,
2013-03-11 10:30:00,26.8,22.9,30.18,SSW,202,0.0,0.0,85,0.00,CLR,,0.00,WeatherDisplay:10.37,2013-03-11 18:30:00,
2013-03-11 10:35:00,26.6,22.4,30.18,SSW,202,0.0,0.0,84,0.00,CLR,,0.00,WeatherDisplay:10.37,2013-03-11 18:35:00,
2013-03-11 10:40:00,26.4,22.0,30.18,SSW,202,0.0,0.9,83,0.00,CLR,,0.00,WeatherDisplay:10.37,2013-03-11 18:40:00,
2013-03-11 10:45:00,26.8,22.3,30.18,SSW,202,0.0,0.0,83,0.00,CLR,,0.00,WeatherDisplay:10.37,2013-03-11 18:45:00,
2013-03-11 10:50:00,27.1,22.7,30.21,SSW,202,0.0,0.0,83,0.00,CLR,,0.00,WeatherDisplay:10.37,2013-03-11 18:50:00,
2013-03-11 10:55:00,26.8,21.7,30.21,SSW,202,2.3,2.3,81,0.00,CLR,,0.00,WeatherDisplay:10.37,2013-03-11 18:55:00,
2013-03-11 11:00:00,27.3,22.5,30.21,SSW,202,2.3,0.0,82,0.00,CLR,,0.00,WeatherDisplay:10.37,2013-03-11 19:00:00,
2013-03-11 11:05:00,27.9,23.4,30.21,SSW,202,0.0,0.0,83,0.00,CLR,,0.00,WeatherDisplay:10.37,2013-03-11 19:05:00,
2013-03-11 11:10:00,28.2,23.4,30.21,SSW,202,1.1,1.1,82,0.00,CLR,,0.00,WeatherDisplay:10.37,2013-03-11 19:10:00,
2013-03-11 11:15:00,28.8,23.4,30.21,SSW,202,1.1,0.0,80,0.00,CLR,,0.00,WeatherDisplay:10.37,2013-03-11 19:15:00,
2013-03-11 11:20:00,29.8,23.8,30.21,SSW,202,1.1,0.0,78,0.00,CLR,,0.00,WeatherDisplay:10.37,2013-03-11 19:20:00,
2013-03-11 11:25:00,30.2,23.5,30.21,SSW,202,1.1,1.4,76,0.00,CLR,,0.00,WeatherDisplay:10.37,2013-03-11 19:25:00,
2013-03-11 11:30:00,30.4,23.4,30.21,SSW,202,1.1,0.0,75,0.00,CLR,,0.00,WeatherDisplay:10.37,2013-03-11 19:30:00,
2013-03-11 11:35:00,30.4,22.8,30.21,SSW,202,1.1,1.1,73,0.00,CLR,,0.00,WeatherDisplay:10.37,2013-03-11 19:35:00,
2013-03-11 11:40:00,30.2,22.6,30.21,SSW,202,0.0,1.4,73,0.00,CLR,,0.00,WeatherDisplay:10.37,2013-03-11 19:40:00,
2013-03-11 11:45:00,30.9,23.3,30.21,SSW,202,1.1,0.0,73,0.00,CLR,,0.00,WeatherDisplay:10.37,2013-03-11 19:45:00,
2013-03-11 11:50:00,31.1,23.1,30.18,SSW,202,1.4,0.0,72,0.00,CLR,,0.00,WeatherDisplay:10.37,2013-03-11 19:50:00,
2013-03-11 11:55:00,31.3,23.3,30.18,SSW,202,1.1,0.0,72,0.00,CLR,,0.00,WeatherDisplay:10.37,2013-03-11 19:55:00,
2013-03-11 12:00:00,31.5,23.8,30.18,SSW,202,0.0,0.0,73,0.00,CLR,,0.00,WeatherDisplay:10.37,2013-03-11 20:00:00,
2013-03-11 12:05:00,31.1,22.8,30.21,SSW,202,1.4,1.4,71,0.00,CLR,,0.00,WeatherDisplay:10.37,2013-03-11 20:05:00,
2013-03-11 12:10:00,32.0,23.3,30.21,SSW,202,1.1,0.0,70,0.00,CLR,,0.00,WeatherDisplay:10.37,2013-03-11 20:10:00,
2013-03-11 12:16:00,30.6,21.6,30.21,SSW,202,1.4,1.4,69,0.00,CLR,,0.00,WeatherDisplay:10.37,2013-03-11 20:16:00,
2013-03-11 12:21:00,31.8,23.5,30.18,SSW,202,1.1,1.1,71,0.00,CLR,,0.00,WeatherDisplay:10.37,2013-03-11 20:21:00,
2013-03-11 12:27:00,32.5,23.1,30.18,SSW,202,0.0,0.0,68,0.00,CLR,,0.00,WeatherDisplay:10.37,2013-03-11 20:27:00,
2013-03-11 12:32:00,33.1,23.7,30.18,SSW,202,0.0,0.0,68,0.00,CLR,,0.00,WeatherDisplay:10.37,2013-03-11 20:32:00,
2013-03-11 12:37:00,32.7,22.6,30.21,SSW,202,1.1,1.1,66,0.00,CLR,,0.00,WeatherDisplay:10.37,2013-03-11 20:37:00,
2013-03-11 12:42:00,32.9,22.4,30.21,SSW,202,1.4,1.4,65,0.00,CLR,,0.00,WeatherDisplay:10.37,2013-03-11 20:42:00,
2013-03-11 12:48:00,34.2,23.2,30.21,SSW,202,1.6,1.6,64,0.00,CLR,,0.00,WeatherDisplay:10.37,2013-03-11 20:48:00,
2013-03-11 12:53:00,34.2,23.2,30.21,SSW,202,1.1,1.1,64,0.00,CLR,,0.00,WeatherDisplay:10.37,2013-03-11 20:53:00,
2013-03-11 12:58:00,34.7,23.8,30.21,SSW,202,1.1,0.0,64,0.00,CLR,,0.00,WeatherDisplay:10.37,2013-03-11 20:58:00,
2013-03-11 13:03:00,34.7,23.8,30.21,SSW,202,0.0,0.0,64,0.00,CLR,,0.00,WeatherDisplay:10.37,2013-03-11 21:03:00,
2013-03-11 13:08:00,34.2,22.5,30.21,SSW,202,3.5,3.5,62,0.00,CLR,,0.00,WeatherDisplay:10.37,2013-03-11 21:08:00,
2013-03-11 13:13:00,34.0,22.7,30.21,SSW,202,2.3,2.4,63,0.00,CLR,,0.00,WeatherDisplay:10.37,2013-03-11 21:13:00,
2013-03-11 13:19:00,34.5,23.6,30.21,SSW,202,1.4,1.4,64,0.00,CLR,,0.00,WeatherDisplay:10.37,2013-03-11 21:19:00,
2013-03-11 13:24:00,34.2,23.2,30.21,SSW,202,1.1,1.1,64,0.00,CLR,,0.00,WeatherDisplay:10.37,2013-03-11 21:24:00,
2013-03-11 13:29:00,34.9,24.3,30.21,SSW,202,1.1,1.1,65,0.00,CLR,,0.00,WeatherDisplay:10.37,2013-03-11 21:29:00,
2013-03-11 13:34:00,34.5,22.8,30.21,SSW,202,3.5,3.5,62,0.00,CLR,,0.00,WeatherDisplay:10.37,2013-03-11 21:34:00,
2013-03-11 13:39:00,35.1,24.1,30.21,SSW,202,2.3,2.3,64,0.00,CLR,,0.00,WeatherDisplay:10.37,2013-03-11 21:39:00,
2013-03-11 13:44:00,35.4,24.8,30.21,SSW,202,0.0,0.0,65,0.00,CLR,,0.00,WeatherDisplay:10.37,2013-03-11 21:44:00,
2013-03-11 13:49:00,35.2,23.9,30.21,SSW,202,3.5,3.5,63,0.00,CLR,,0.00,WeatherDisplay:10.37,2013-03-11 21:49:00,
2013-03-11 13:54:00,34.9,23.6,30.21,SSW,202,2.6,2.6,63,0.00,CLR,,0.00,WeatherDisplay:10.37,2013-03-11 21:54:00,
2013-03-11 14:00:00,34.5,23.6,30.21,SSW,202,2.0,2.0,64,0.00,CLR,,0.00,WeatherDisplay:10.37,2013-03-11 22:00:00,
2013-03-11 14:05:00,34.3,23.8,30.21,SSW,202,2.4,2.4,65,0.00,CLR,,0.00,WeatherDisplay:10.37,2013-03-11 22:05:00,
2013-03-11 14:11:00,33.3,23.1,30.21,SSW,202,1.1,1.1,66,0.00,CLR,,0.00,WeatherDisplay:10.37,2013-03-11 22:11:00,
2013-03-11 14:16:00,32.7,23.0,30.21,SSW,202,1.6,1.6,67,0.00,CLR,,0.00,WeatherDisplay:10.37,2013-03-11 22:16:00,
2013-03-11 14:21:00,32.5,22.8,30.18,SSW,202,2.6,2.6,67,0.00,CLR,,0.00,WeatherDisplay:10.37,2013-03-11 22:21:00,
2013-03-11 14:26:00,32.4,23.0,30.18,SSW,202,2.4,2.4,68,0.00,CLR,,0.00,WeatherDisplay:10.37,2013-03-11 22:26:00,
2013-03-11 14:32:00,32.4,23.0,30.18,SSW,202,2.3,2.3,68,0.00,CLR,,0.00,WeatherDisplay:10.37,2013-03-11 22:32:00,
2013-03-11 14:37:00,32.5,23.1,30.18,SSW,202,2.3,2.3,68,0.00,CLR,,0.00,WeatherDisplay:10.37,2013-03-11 22:37:00,
2013-03-11 14:42:00,32.5,23.1,30.18,SSW,202,2.4,2.4,68,0.00,CLR,,0.00,WeatherDisplay:10.37,2013-03-11 22:42:00,
2013-03-11 14:48:00,32.5,23.5,30.18,SSW,202,1.4,1.4,69,0.00,CLR,,0.00,WeatherDisplay:10.37,2013-03-11 22:48:00,
2013-03-11 14:53:00,32.7,23.3,30.18,SSW,202,2.3,2.3,68,0.00,CLR,,0.00,WeatherDisplay:10.37,2013-03-11 22:53:00,
2013-03-11 14:58:00,33.4,24.0,30.18,SSW,202,0.0,1.1,68,0.00,CLR,,0.00,WeatherDisplay:10.37,2013-03-11 22:58:00,
2013-03-11 15:03:00,33.8,24.4,30.18,SSW,202,0.0,0.0,68,0.00,CLR,,0.00,WeatherDisplay:10.37,2013-03-11 23:03:00,
2013-03-11 15:09:00,34.0,23.8,30.18,SSW,202,1.1,1.1,66,0.00,CLR,,0.00,WeatherDisplay:10.37,2013-03-11 23:09:00,
2013-03-11 15:14:00,34.3,24.2,30.18,SSW,202,1.6,1.6,66,0.00,CLR,,0.00,WeatherDisplay:10.37,2013-03-11 23:14:00,
2013-03-11 15:19:00,34.3,23.4,30.18,East,90,2.3,2.3,64,0.00,CLR,,0.00,WeatherDisplay:10.37,2013-03-11 23:19:00,
2013-03-11 15:24:00,34.5,23.6,30.18,NE,45,2.3,2.3,64,0.00,CLR,,0.00,WeatherDisplay:10.37,2013-03-11 23:24:00,
2013-03-11 15:29:00,35.1,23.7,30.18,NE,45,1.6,1.6,63,0.00,CLR,,0.00,WeatherDisplay:10.37,2013-03-11 23:29:00,
2013-03-11 15:34:00,35.1,23.7,30.15,NE,45,3.5,3.5,63,0.00,CLR,,0.00,WeatherDisplay:10.37,2013-03-11 23:34:00,
2013-03-11 15:39:00,34.9,23.6,30.15,NE,45,3.5,3.5,63,0.00,CLR,,0.00,WeatherDisplay:10.37,2013-03-11 23:39:00,
2013-03-11 15:44:00,35.2,23.9,30.15,East,90,0.0,1.6,63,0.00,CLR,,0.00,WeatherDisplay:10.37,2013-03-11 23:44:00,
2013-03-11 15:50:00,36.1,24.4,30.18,ENE,68,2.3,2.3,62,0.00,CLR,,0.00,WeatherDisplay:10.37,2013-03-11 23:50:00,
2013-03-11 15:55:00,36.9,25.0,30.18,South,180,1.1,1.1,62,0.00,CLR,,0.00,WeatherDisplay:10.37,2013-03-11 23:55:00,
2013-03-11 16:00:00,36.7,23.7,30.18,East,90,1.4,1.4,59,0.00,CLR,,0.00,WeatherDisplay:10.37,2013-03-12 00:00:00,
2013-03-11 16:05:00,36.7,24.5,30.15,NE,45,0.0,0.0,61,0.00,CLR,,0.00,WeatherDisplay:10.37,2013-03-12 00:05:00,
2013-03-11 16:10:00,36.0,23.4,30.15,ENE,68,1.1,0.0,60,0.00,CLR,,0.00,WeatherDisplay:10.37,2013-03-12 00:10:00,
2013-03-11 16:15:00,35.6,23.5,30.15,ENE,68,0.0,0.0,61,0.00,CLR,,0.00,WeatherDisplay:10.37,2013-03-12 00:15:00,
2013-03-11 16:21:00,35.1,21.8,30.15,East,90,2.3,2.3,58,0.00,CLR,,0.00,WeatherDisplay:10.37,2013-03-12 00:21:00,
2013-03-11 16:26:00,35.1,23.0,30.15,West,270,0.0,0.0,61,0.00,CLR,,0.00,WeatherDisplay:10.37,2013-03-12 00:26:00,
2013-03-11 16:31:00,35.1,22.2,30.15,NNE,22,0.0,0.0,59,0.00,CLR,,0.00,WeatherDisplay:10.37,2013-03-12 00:31:00,
2013-03-11 16:36:00,35.1,23.0,30.18,NNE,22,0.0,0.0,61,0.00,CLR,,0.00,WeatherDisplay:10.37,2013-03-12 00:36:00,
2013-03-11 16:42:00,35.1,22.6,30.18,NNE,22,0.0,0.0,60,0.00,CLR,,0.00,WeatherDisplay:10.37,2013-03-12 00:42:00,
2013-03-11 16:47:00,35.2,23.5,30.18,NNE,22,0.0,0.0,62,0.00,CLR,,0.00,WeatherDisplay:10.37,2013-03-12 00:47:00,
2013-03-11 16:52:00,35.6,23.9,30.18,WSW,248,0.0,0.0,62,0.00,CLR,,0.00,WeatherDisplay:10.37,2013-03-12 00:52:00,
2013-03-11 16:57:00,35.8,24.4,30.18,SW,225,2.3,2.3,63,0.00,CLR,,0.00,WeatherDisplay:10.37,2013-03-12 00:57:00,
2013-03-11 17:02:00,36.0,24.6,30.18,SW,225,0.0,0.0,63,0.00,CLR,,0.00,WeatherDisplay:10.37,2013-03-12 01:02:00,
2013-03-11 17:07:00,36.0,24.6,30.15,SSW,202,1.1,1.1,63,0.00,CLR,,0.00,WeatherDisplay:10.37,2013-03-12 01:07:00,
2013-03-11 17:12:00,36.0,24.2,30.15,SSW,202,0.0,0.0,62,0.00,CLR,,0.00,WeatherDisplay:10.37,2013-03-12 01:12:00,
2013-03-11 17:17:00,35.8,23.2,30.15,SSW,202,2.4,0.0,60,0.00,CLR,,0.00,WeatherDisplay:10.37,2013-03-12 01:17:00,
2013-03-11 17:23:00,35.6,24.2,30.15,SW,225,2.3,2.3,63,0.00,CLR,,0.00,WeatherDisplay:10.37,2013-03-12 01:23:00,
2013-03-11 17:28:00,35.6,25.4,30.15,SW,225,3.5,3.5,66,0.00,CLR,,0.00,WeatherDisplay:10.37,2013-03-12 01:28:00,
2013-03-11 17:33:00,35.8,25.5,30.15,SSW,202,2.3,2.3,66,0.00,CLR,,0.00,WeatherDisplay:10.37,2013-03-12 01:33:00,
2013-03-11 17:38:00,35.6,25.4,30.15,SSW,202,0.0,0.0,66,0.00,CLR,,0.00,WeatherDisplay:10.37,2013-03-12 01:38:00,
2013-03-11 17:43:00,35.8,25.9,30.15,SSW,202,0.0,0.0,67,0.00,CLR,,0.00,WeatherDisplay:10.37,2013-03-12 01:43:00,
2013-03-11 17:48:00,36.3,26.4,30.15,SSE,158,2.4,2.4,67,0.00,CLR,,0.00,WeatherDisplay:10.37,2013-03-12 01:48:00,
2013-03-11 17:53:00,36.9,26.6,30.15,SE,135,4.6,4.6,66,0.00,CLR,,0.00,WeatherDisplay:10.37,2013-03-12 01:53:00,
2013-03-11 17:58:00,37.4,26.7,30.15,East,90,3.5,3.5,65,0.00,CLR,,0.00,WeatherDisplay:10.37,2013-03-12 01:58:00,
2013-03-11 18:03:00,37.2,26.5,30.15,ESE,112,0.0,0.0,65,0.00,CLR,,0.00,WeatherDisplay:10.37,2013-03-12 02:03:00,
2013-03-11 18:08:00,35.6,25.0,30.15,WSW,248,0.0,0.0,65,0.00,CLR,,0.00,WeatherDisplay:10.37,2013-03-12 02:08:00,
2013-03-11 18:13:00,35.1,24.8,30.15,WSW,248,0.0,0.0,66,0.00,CLR,,0.00,WeatherDisplay:10.37,2013-03-12 02:13:00,
2013-03-11 18:18:00,34.7,24.9,30.15,WSW,248,0.0,0.0,67,0.00,CLR,,0.00,WeatherDisplay:10.37,2013-03-12 02:18:00,
2013-03-11 18:23:00,34.2,24.3,30.15,WSW,248,0.0,0.0,67,0.00,CLR,,0.00,WeatherDisplay:10.37,2013-03-12 02:23:00,
2013-03-11 18:28:00,33.8,24.4,30.15,WSW,248,0.0,0.0,68,0.00,CLR,,0.00,WeatherDisplay:10.37,2013-03-12 02:28:00,
2013-03-11 18:33:00,33.4,24.4,30.15,WSW,248,0.0,0.0,69,0.00,CLR,,0.00,WeatherDisplay:10.37,2013-03-12 02:33:00,
2013-03-11 18:38:00,33.1,24.4,30.15,WSW,248,0.0,0.0,70,0.00,CLR,,0.00,WeatherDisplay:10.37,2013-03-12 02:38:00,
2013-03-11 18:43:00,33.1,24.4,30.15,WSW,248,0.0,0.0,70,0.00,CLR,,0.00,WeatherDisplay:10.37,2013-03-12 02:43:00,
2013-03-11 18:48:00,32.7,24.0,30.15,WSW,248,0.0,0.0,70,0.00,CLR,,0.00,WeatherDisplay:10.37,2013-03-12 02:48:00,
2013-03-11 18:53:00,32.5,24.2,30.12,WSW,248,0.0,0.0,71,0.00,CLR,,0.00,WeatherDisplay:10.37,2013-03-12 02:53:00,
2013-03-11 18:58:00,32.5,24.5,30.12,WSW,248,0.0,0.0,72,0.00,CLR,,0.00,WeatherDisplay:10.37,2013-03-12 02:58:00,
2013-03-11 19:03:00,32.2,24.2,30.12,WSW,248,0.0,0.0,72,0.00,CLR,,0.00,WeatherDisplay:10.37,2013-03-12 03:03:00,
2013-03-11 19:08:00,32.0,24.0,30.15,WSW,248,0.0,0.0,72,0.00,CLR,,0.00,WeatherDisplay:10.37,2013-03-12 03:08:00,
2013-03-11 19:13:00,31.5,23.8,30.15,WSW,248,0.0,0.0,73,0.00,CLR,,0.00,WeatherDisplay:10.37,2013-03-12 03:13:00,
2013-03-11 19:18:00,31.5,23.8,30.15,WSW,248,0.0,0.0,73,0.00,CLR,,0.00,WeatherDisplay:10.37,2013-03-12 03:18:00,
2013-03-11 19:23:00,31.6,24.3,30.15,WSW,248,0.0,0.0,74,0.00,CLR,,0.00,WeatherDisplay:10.37,2013-03-12 03:23:00,
2013-03-11 19:28:00,32.0,24.0,30.15,WSW,248,1.1,1.1,72,0.00,CLR,,0.00,WeatherDisplay:10.37,2013-03-12 03:28:00,
2013-03-11 19:33:00,31.6,23.6,30.15,WSW,248,0.0,0.0,72,0.00,CLR,,0.00,WeatherDisplay:10.37,2013-03-12 03:33:00,
2013-03-11 19:38:00,31.6,23.3,30.12,WSW,248,0.0,0.0,71,0.00,CLR,,0.00,WeatherDisplay:10.37,2013-03-12 03:38:00,
2013-03-11 19:43:00,31.8,22.8,30.12,WSW,248,1.1,1.1,69,0.00,CLR,,0.00,WeatherDisplay:10.37,2013-03-12 03:43:00,
2013-03-11 19:48:00,32.5,19.4,30.12,WSW,248,2.9,2.9,58,0.00,CLR,,0.00,WeatherDisplay:10.37,2013-03-12 03:48:00,
2013-03-11 19:53:00,33.6,17.4,30.12,WSW,248,6.0,6.0,51,0.00,CLR,,0.00,WeatherDisplay:10.37,2013-03-12 03:53:00,
2013-03-11 19:58:00,33.8,17.1,30.12,WSW,248,5.8,5.8,50,0.00,CLR,,0.00,WeatherDisplay:10.37,2013-03-12 03:58:00,
2013-03-11 20:00:00,34.0,17.3,30.12,North,0,5.8,5.8,50,0.00,CLR,,0.00,WeatherDisplay:10.37,2013-03-12 04:00:00,
2013-03-11 20:02:00,34.0,17.7,30.12,North,0,4.6,4.6,51,0.00,CLR,,0.00,WeatherDisplay:10.37,2013-03-12 04:02:00,
2013-03-11 20:03:00,34.0,17.3,30.12,North,0,4.6,4.6,50,0.00,CLR,,0.00,WeatherDisplay:10.37,2013-03-12 04:03:00,
2013-03-11 20:07:00,34.2,17.4,30.12,North,0,5.8,5.8,50,0.00,CLR,,0.00,WeatherDisplay:10.37,2013-03-12 04:07:00,
2013-03-11 20:12:00,34.3,16.2,30.12,NNE,22,3.6,4.0,47,0.00,CLR,,0.00,WeatherDisplay:10.37,2013-03-12 04:12:00,
2013-03-11 20:17:00,34.0,16.3,30.12,North,0,5.8,5.8,48,0.00,CLR,,0.00,WeatherDisplay:10.37,2013-03-12 04:17:00,
2013-03-11 20:22:00,33.8,16.2,30.12,North,0,4.6,4.6,48,0.00,CLR,,0.00,WeatherDisplay:10.37,2013-03-12 04:22:00,
2013-03-11 20:27:00,33.6,16.0,30.12,NNW,338,5.8,5.8,48,0.00,CLR,,0.00,WeatherDisplay:10.37,2013-03-12 04:27:00,
2013-03-11 20:32:00,33.8,16.2,30.12,NNW,338,5.8,5.8,48,0.00,CLR,,0.00,WeatherDisplay:10.37,2013-03-12 04:32:00,
2013-03-11 20:37:00,33.6,16.9,30.12,North,0,8.5,8.5,50,0.00,CLR,,0.00,WeatherDisplay:10.37,2013-03-12 04:37:00,
2013-03-11 20:42:00,33.6,16.0,30.12,NNW,338,6.9,6.9,48,0.00,CLR,,0.00,WeatherDisplay:10.37,2013-03-12 04:42:00,
2013-03-11 20:47:00,33.8,15.2,30.12,NNW,338,6.9,6.9,46,0.00,CLR,,0.00,WeatherDisplay:10.37,2013-03-12 04:47:00,
2013-03-11 20:52:00,33.8,15.2,30.12,NNW,338,4.9,4.9,46,0.00,CLR,,0.00,WeatherDisplay:10.37,2013-03-12 04:52:00,
2013-03-11 20:57:00,33.6,15.5,30.12,NNW,338,5.4,5.6,47,0.00,CLR,,0.00,WeatherDisplay:10.37,2013-03-12 04:57:00,
2013-03-11 21:02:00,33.6,16.0,30.12,NNW,338,5.8,5.8,48,0.00,CLR,,0.00,WeatherDisplay:10.37,2013-03-12 05:02:00,
2013-03-11 21:07:00,33.6,15.0,30.12,North,0,5.8,7.1,46,0.00,CLR,,0.00,WeatherDisplay:10.37,2013-03-12 05:07:00,
2013-03-11 21:12:00,33.6,15.0,30.12,NNW,338,5.8,5.8,46,0.00,CLR,,0.00,WeatherDisplay:10.37,2013-03-12 05:12:00,
2013-03-11 21:17:00,33.6,14.5,30.12,NNW,338,5.8,5.8,45,0.00,CLR,,0.00,WeatherDisplay:10.37,2013-03-12 05:17:00,
2013-03-11 21:22:00,33.8,14.2,30.12,NNW,338,6.4,7.8,44,0.00,CLR,,0.00,WeatherDisplay:10.37,2013-03-12 05:22:00,
2013-03-11 21:27:00,33.8,14.2,30.12,NNW,338,10.5,10.5,44,0.00,CLR,,0.00,WeatherDisplay:10.37,2013-03-12 05:27:00,
2013-03-11 21:32:00,33.6,14.0,30.12,NNW,338,5.8,6.0,44,0.00,CLR,,0.00,WeatherDisplay:10.37,2013-03-12 05:32:00,
2013-03-11 21:37:00,33.4,14.3,30.12,NW,315,9.2,9.2,45,0.00,CLR,,0.00,WeatherDisplay:10.37,2013-03-12 05:37:00,
2013-03-11 21:42:00,33.3,13.7,30.12,NNW,338,6.2,6.2,44,0.00,CLR,,0.00,WeatherDisplay:10.37,2013-03-12 05:42:00,
2013-03-11 21:47:00,33.1,13.5,30.12,NNW,338,6.2,6.2,44,0.00,CLR,,0.00,WeatherDisplay:10.37,2013-03-12 05:47:00,
2013-03-11 21:53:00,32.2,13.2,30.12,NNW,338,5.8,5.8,45,0.00,CLR,,0.00,WeatherDisplay:10.37,2013-03-12 05:53:00,
2013-03-11 21:58:00,31.1,13.2,30.12,NNW,338,2.3,2.3,47,0.00,CLR,,0.00,WeatherDisplay:10.37,2013-03-12 05:58:00,
2013-03-11 22:03:00,30.6,13.2,30.12,WNW,292,2.6,2.9,48,0.00,CLR,,0.00,WeatherDisplay:10.37,2013-03-12 06:03:00,
2013-03-11 22:08:00,30.7,12.9,30.12,NNW,338,3.5,3.5,47,0.00,CLR,,0.00,WeatherDisplay:10.37,2013-03-12 06:08:00,
2013-03-11 22:13:00,30.4,12.5,30.12,WNW,292,5.8,5.8,47,0.00,CLR,,0.00,WeatherDisplay:10.37,2013-03-12 06:13:00,
2013-03-11 22:18:00,30.7,12.4,30.12,NNW,338,3.6,3.6,46,0.00,CLR,,0.00,WeatherDisplay:10.37,2013-03-12 06:18:00,
2013-03-11 22:23:00,30.4,12.5,30.12,North,0,5.9,5.9,47,0.00,CLR,,0.00,WeatherDisplay:10.37,2013-03-12 06:23:00,
2013-03-11 22:28:00,30.7,12.4,30.12,NNW,338,4.6,5.6,46,0.00,CLR,,0.00,WeatherDisplay:10.37,2013-03-12 06:28:00,
2013-03-11 22:33:00,32.5,13.5,30.12,NNW,338,10.4,10.4,45,0.00,CLR,,0.00,WeatherDisplay:10.37,2013-03-12 06:33:00,
2013-03-11 22:38:00,33.3,13.1,30.12,North,0,8.1,8.1,43,0.00,CLR,,0.00,WeatherDisplay:10.37,2013-03-12 06:38:00,
2013-03-11 22:43:00,33.3,13.1,30.12,North,0,6.0,6.4,43,0.00,CLR,,0.00,WeatherDisplay:10.37,2013-03-12 06:43:00,
2013-03-11 22:48:00,33.4,13.3,30.12,NW,315,9.4,9.4,43,0.00,CLR,,0.00,WeatherDisplay:10.37,2013-03-12 06:48:00,
2013-03-11 22:53:00,33.3,13.7,30.12,NNW,338,12.7,12.7,44,0.00,CLR,,0.00,WeatherDisplay:10.37,2013-03-12 06:53:00,
2013-03-11 22:58:00,33.3,13.7,30.12,NNW,338,12.7,12.7,44,0.00,CLR,,0.00,WeatherDisplay:10.37,2013-03-12 06:58:00,
2013-03-11 23:03:00,32.7,14.2,30.12,North,0,5.8,5.8,46,0.00,CLR,,0.00,WeatherDisplay:10.37,2013-03-12 07:03:00,
2013-03-11 23:08:00,32.7,13.2,30.12,North,0,5.8,7.4,44,0.00,CLR,,0.00,WeatherDisplay:10.37,2013-03-12 07:08:00,
2013-03-11 23:13:00,33.3,13.1,30.12,North,0,15.2,15.2,43,0.00,CLR,,0.00,WeatherDisplay:10.37,2013-03-12 07:13:00,
2013-03-11 23:18:00,32.9,12.8,30.12,North,0,12.7,12.7,43,0.00,CLR,,0.00,WeatherDisplay:10.37,2013-03-12 07:18:00,
2013-03-11 23:23:00,32.0,12.0,30.12,NNE,22,4.6,4.6,43,0.00,CLR,,0.00,WeatherDisplay:10.37,2013-03-12 07:23:00,
2013-03-11 23:28:00,31.1,11.2,30.12,NNE,22,2.6,3.3,43,0.00,CLR,,0.00,WeatherDisplay:10.37,2013-03-12 07:28:00,
2013-03-11 23:33:00,30.9,11.0,30.12,NNE,22,2.4,3.1,43,0.00,CLR,,0.00,WeatherDisplay:10.37,2013-03-12 07:33:00,
2013-03-11 23:38:00,30.2,11.4,30.12,North,0,4.6,4.6,45,0.00,CLR,,0.00,WeatherDisplay:10.37,2013-03-12 07:38:00,
2013-03-11 23:43:00,30.2,11.4,30.12,North,0,3.5,3.6,45,0.00,CLR,,0.00,WeatherDisplay:10.37,2013-03-12 07:43:00,
2013-03-11 23:48:00,30.0,11.7,30.12,NNW,338,4.6,4.6,46,0.00,CLR,,0.00,WeatherDisplay:10.37,2013-03-12 07:48:00,
2013-03-11 23:53:00,31.3,12.4,30.09,NNW,338,4.6,4.6,45,0.00,CLR,,0.00,WeatherDisplay:10.37,2013-03-12 07:53:00,
2013-03-11 23:58:00,32.2,12.7,30.09,NNW,338,4.6,4.6,44,0.00,CLR,,0.00,WeatherDisplay:10.37,2013-03-12 07:58:00,